Погода в Жигулях

Россия / Самарская область     53°21′19″N   49°18′12″E
темп.,
°C
ветер,
м/с
пор.,
м/с
влажн.,
%
обл.,
%
осадки,
мм/ч
давл.,
гПа
погр.,
м
13 апреля, вт
вт1301:00+10в348876 0.0 103446
04:00+9вюв339017 0.0 103538
07:00+8вюв228871 0.0 103532
10:00+13юв4664100 0.0 1035337
13:00+17юв464457 0.0 1034845
16:00+19юв56415 0.0 10331095
19:00+16юв335316 0.0 103243
22:00+12юв33685 0.0 103231
14 апреля, ср
ср1401:00+10юв33744 0.0 103129
04:00+8вюв33765 0.0 103135
07:00+8вюв35905 0.0 1030115
10:00+13вюв57756 0.0 1029470
13:00+16вюв57595 0.0 1028846
16:00+17вюв56540 0.0 10261131
19:00+15вюв36640 0.0 1024146
22:00+12юв37760 0.0 1024123
15 апреля, чт
чт1501:00+10вюв33790 0.0 102340
04:00+9вюв22800 0.0 102325
07:00+9вюв23800 0.0 102251
10:00+14юв35600 0.0 1021325
13:00+18юв45470 0.0 1020797
16:00+20юв34394 0.0 10191356
19:00+18юв224989 0.0 101827
22:00
16 апреля, пт
пт1601:00+12вюв226198 0.0 101710
04:00+11всв1160100 0.0 101710
07:00+11всв1160100 0.0 101711
10:00+15св224783 0.0 1016307
13:00+18св223760 0.0 1016998
16:00+19ссв333417 0.0 10161577
19:00+16с595878 0.0 1016306
22:00+11ссв612776 0.0 1017343
17 апреля, сб
сб1701:00+9ссв6118410 0.0 1018299
04:00+8ссв49866 0.0 1019331
07:00+7ссв588645 0.0 1020367
10:00+10св676521 0.0 1020691
13:00+12ссв774366 0.0 10211120
16:00+13ссв77345 0.0 10211468
19:00+10св69400 0.0 1022928
22:00+7ссв49555 0.0 1023308